Theta_e
302 296 292 295 298 297 297 294 293 296 296 296 296 297 299 302 302 302 304 305 306 306 309 310 310 310 311 314 323 328 331 335 333 333 332 332 331 333 334 335 333 330 328 327
296 292 298 298 296 295 296 294 293 294 296 296 296 296 299 301 301 303 303 305 306 307 308 307 307 308 309 309 311 319 325 330 335 332 333 333 333 333 334 335 334 330 327 326
293 295 297 296 293 293 294 293 293 293 294 295 294 293 296 300 302 303 303 305 306 305 305 306 305 307 309 308 309 309 312 321 328 334 332 332 332 332 331 331 332 331 328 326
294 294 294 294 293 293 289 294 294 292 292 288 293 287 296 298 298 298 300 301 302 303 304 304 306 308 309 310 310 309 309 312 319 329 333 330 328 326 329 331 332 331 330 326
291 291 292 292 293 295 292 295 293 293 292 291 290 288 293 294 294 297 299 302 303 304 305 305 305 306 307 310 313 315 307 311 316 323 330 332 325 330 330 329 330 330 329 328
293 295 295 295 294 296 295 293 293 293 291 284 289 289 290 293 294 296 299 302 303 303 304 305 305 307 308 311 314 318 310 307 314 320 325 328 328 327 327 328 328 328 328 327
292 291 294 295 291 294 294 291 285 283 284 283 287 286 291 296 295 298 298 302 303 303 304 305 305 306 307 308 310 314 317 315 312 314 320 324 326 326 322 324 324 326 325 323
286 284 292 295 293 291 292 292 287 281 281 285 285 283 290 296 298 297 297 302 303 303 303 304 304 306 306 307 308 310 314 317 317 318 319 322 324 324 321 321 321 323 321 321
287 286 292 293 294 295 290 287 292 285 281 285 288 291 295 295 295 297 298 300 302 302 303 303 303 305 306 306 307 308 309 313 316 315 316 316 317 317 317 316 316 317 316 313
291 284 290 291 294 293 292 294 286 287 283 281 285 287 289 292 293 296 297 299 300 301 301 301 302 303 304 305 306 307 307 307 309 311 311 311 313 314 315 316 314 314 313 312
293 291 286 290 289 289 289 288 289 290 289 286 283 286 294 295 297 296 299 300 300 300 300 300 301 302 302 303 303 304 305 305 305 306 307 306 306 307 307 306 306 306 307 306
293 291 285 287 290 292 292 291 290 286 284 286 285 287 294 295 298 300 300 300 300 300 300 300 300 301 300 300 300 300 301 300 301 301 301 301 301 301 301 300 300 301 301 302
292 290 284 284 288 291 288 290 292 292 290 286 285 287 295 295 296 300 299 298 298 299 299 299 299 299 298 298 298 298 298 297 298 299 298 298 298 298 297 297 297 297 298 298
295 292 288 284 286 290 286 289 290 290 287 286 287 289 292 294 294 298 299 298 299 298 298 298 297 298 298 298 297 297 296 297 297 297 296 295 295 295 295 295 295 295 295 295
294 287 289 290 289 291 290 289 289 287 289 286 289 289 293 296 296 298 300 299 298 297 297 297 297 297 297 296 295 296 295 295 296 295 294 293 294 293 293 293 293 293 292 292
294 285 288 284 289 289 287 290 290 289 290 290 290 290 297 298 300 299 299 298 297 297 297 297 297 296 295 295 294 294 294 294 295 293 292 292 292 291 291 291 290 290 290 290
291 287 285 285 287 287 283 286 289 290 291 291 287 292 296 294 296 298 299 299 298 297 297 296 295 294 293 293 294 293 293 294 292 290 289 289 289 288 289 289 288 288 289 289
286 286 287 284 285 278 289 294 293 291 292 293 293 294 296 297 297 300 301 300 299 298 297 296 295 293 292 292 292 292 292 291 289 288 287 287 287 286 287 287 287 287 287 287
292 289 285 283 282 286 289 288 290 289 289 294 293 294 296 296 296 296 298 301 299 298 297 296 295 293 291 290 290 289 288 288 287 286 286 285 285 284 284 283 284 285 285 285
289 290 287 285 281 280 287 290 294 294 285 294 295 294 294 293 289 294 296 297 296 295 294 292 291 289 287 286 287 286 285 284 282 282 282 283 283 282 282 283 283 284 284 284
283 284 283 284 283 286 290 288 293 284 288 288 290 293 293 291 293 293 292 291 291 290 289 289 288 285 283 283 285 283 282 280 280 280 280 281 281 280 281 282 282 282 282 282
283 282 282 284 282 280 288 289 288 290 288 289 290 292 291 289 289 289 288 287 286 286 286 285 283 281 280 280 282 281 278 278 277 275 276 276 276 278 280 279 280 282 282 282
283 289 286 286 286 289 290 290 291 290 289 289 289 290 290 288 287 287 286 285 284 283 282 283 282 278 277 277 277 277 275 274 273 271 272 274 275 277 278 278 279 280 281 282
286 287 286 288 290 289 289 289 289 289 289 288 289 290 289 287 287 286 285 282 281 280 279 280 280 278 275 274 273 272 272 271 269 270 271 273 274 275 277 277 279 279 279 280
287 286 286 286 286 286 288 288 289 286 287 287 286 287 288 287 285 284 283 282 280 278 277 278 278 276 273 272 271 270 268 267 268 269 271 273 274 273 274 276 276 277 278 279
284 285 285 285 289 290 289 290 288 285 285 285 285 284 286 286 285 283 281 280 278 276 275 274 273 272 270 269 268 267 265 265 264 268 270 271 270 272 272 273 274 278 279 280
Wind_Speed
10 11 15 17 17 5 14 14 11 8 3 6 13 15 14 12 9 9 10 10 10 11 10 5 4 6 9 11 13 15 15 15 10 9 8 8 8 7 7 6 9 9 8 9
7 15 13 5 7 6 10 15 9 5 3 4 6 13 13 14 15 13 14 13 13 12 9 9 5 5 8 11 11 13 15 15 14 9 8 7 6 6 7 7 8 10 10 10
12 6 10 8 6 10 6 12 10 1 5 2 7 11 16 14 15 12 10 10 9 6 9 6 5 6 5 7 8 10 13 14 14 14 7 5 2 3 5 6 7 9 10 10
8 4 10 12 13 7 7 3 7 9 7 6 3 5 4 8 11 10 11 12 11 6 4 3 3 2 1 3 4 6 9 13 12 13 11 13 9 9 9 8 7 7 10 9
5 8 12 13 11 12 3 6 7 5 3 4 6 6 5 2 9 11 10 6 5 3 3 4 4 2 2 2 2 3 5 8 11 11 12 9 11 8 8 7 7 8 8 10
4 1 2 3 6 2 14 10 8 4 2 6 10 8 6 7 3 4 8 7 6 6 5 5 4 3 4 4 3 2 4 6 8 10 11 11 11 10 6 7 6 6 5 6
4 4 2 4 9 6 7 14 4 5 5 6 3 3 12 2 3 4 8 7 7 7 6 5 4 4 4 5 5 4 4 4 5 7 9 10 10 9 8 4 2 3 4 3
12 8 11 8 2 7 13 15 5 7 6 3 3 9 6 2 4 5 4 4 7 8 6 5 3 4 4 5 5 5 5 6 5 3 2 0 2 3 3 4 3 3 2 2
12 8 2 1 1 5 7 7 3 6 2 0 7 7 8 8 6 6 8 8 7 7 5 5 4 4 5 5 6 6 6 6 7 6 5 5 5 5 4 4 3 2 2 2
3 5 1 3 2 1 5 10 4 3 4 5 6 7 9 6 11 10 10 10 8 6 6 5 5 5 5 5 6 7 8 8 8 8 6 5 5 5 5 4 5 5 4 4
6 3 2 3 10 13 5 6 5 4 3 4 3 5 4 4 10 13 12 11 10 8 7 6 6 5 5 6 7 8 8 9 9 8 8 8 8 8 8 7 7 6 6 6
2 5 5 9 4 4 5 11 12 6 6 6 2 7 2 4 1 11 11 10 8 8 7 7 8 7 6 6 7 8 9 9 9 8 8 9 8 8 8 8 8 7 6 6
9 4 5 2 2 2 8 10 15 13 4 7 6 8 2 4 4 7 12 11 10 9 9 8 8 7 7 7 6 8 8 9 8 8 8 8 9 8 8 8 7 7 7 7
5 3 11 14 4 10 9 12 11 11 4 15 12 20 5 7 10 10 10 11 12 10 9 8 8 7 7 6 6 8 8 7 7 8 8 8 8 7 7 7 7 7 7 7
6 6 6 12 5 3 4 12 15 17 23 13 23 21 15 9 12 16 13 11 12 13 12 11 10 8 8 7 7 7 7 7 7 8 8 8 7 7 7 7 6 5 5 5
4 2 2 2 4 2 1 7 18 22 24 20 25 21 8 2 10 11 13 13 14 14 14 12 11 9 8 7 7 7 7 6 7 8 8 6 6 5 6 5 4 4 4 4
7 6 4 2 4 5 5 23 13 16 20 18 22 30 7 7 10 11 15 17 16 13 13 13 12 10 8 7 6 7 6 6 7 6 5 5 5 5 4 3 4 5 5 4
6 6 2 4 3 7 8 3 19 20 18 19 21 21 8 7 14 13 14 16 14 15 15 13 10 11 9 8 7 7 5 6 5 5 5 6 6 5 6 6 5 5 5 6
2 4 3 5 8 10 16 4 7 10 21 20 22 22 14 3 3 7 3 8 12 13 12 11 10 11 9 8 7 6 6 6 6 7 7 7 6 6 7 6 7 6 6 6
3 2 5 4 7 10 3 4 3 6 19 10 14 20 10 10 8 10 10 8 13 14 13 13 12 11 10 7 5 7 6 7 7 7 8 6 5 4 5 6 6 5 5 7
6 3 13 12 6 8 4 7 3 10 4 2 3 3 6 7 4 8 13 13 13 13 14 13 12 10 9 5 5 6 7 7 5 6 6 5 6 6 5 6 5 5 7 7
10 10 5 3 7 16 6 4 10 1 1 1 1 1 4 8 10 12 14 14 15 15 13 11 11 10 8 7 6 6 6 5 5 6 5 5 4 5 5 6 6 6 6 8
7 4 6 9 6 3 7 4 3 2 2 2 2 3 9 12 12 13 14 13 12 12 10 8 9 10 9 7 5 6 3 4 4 4 3 4 4 4 4 6 7 6 6 7
6 3 2 2 4 2 2 2 3 2 3 2 2 7 11 14 13 13 12 11 10 8 9 7 8 8 6 5 5 4 3 4 3 4 5 6 6 7 5 5 5 5 6 7
2 10 5 5 2 2 8 8 3 3 3 5 3 5 9 13 13 12 11 10 10 9 7 6 6 7 6 4 4 4 4 4 4 4 5 6 5 6 7 6 6 6 7 8
6 5 7 5 4 1 2 3 8 8 9 9 8 5 6 9 11 12 9 7 8 8 7 6 6 5 5 3 3 3 3 4 4 5 5 5 6 6 6 7 8 11 15 17
Wind_Direction
193 199 200 194 204 252 197 202 201 186 124 219 232 249 246 239 212 242 242 230 215 213 214 203 223 247 229 233 228 223 216 210 200 196 198 196 202 199 205 206 195 188 194 198
172 216 198 142 133 152 180 193 185 127 132 211 229 259 255 248 242 231 237 236 224 212 202 209 226 233 238 238 227 235 227 220 196 207 203 206 194 208 211 205 202 193 192 195
196 189 145 166 161 178 193 194 166 190 154 233 282 264 245 236 245 237 236 254 260 254 246 245 217 235 249 240 233 230 233 230 223 190 195 193 193 180 198 212 204 199 194 194
233 136 180 184 188 169 185 93 136 134 178 229 267 264 172 225 224 211 227 218 225 216 203 203 190 198 189 275 278 256 246 235 230 216 202 184 207 216 218 213 202 197 194 194
154 155 180 178 192 194 145 113 113 135 195 292 181 263 234 143 249 221 193 169 171 164 177 149 114 84 49 18 311 259 237 232 220 219 209 203 212 228 226 209 188 190 191 195
95 344 205 146 71 236 138 123 95 114 190 246 230 225 250 205 226 118 143 165 158 156 143 125 102 80 63 56 36 60 166 204 222 213 215 223 210 226 230 233 170 183 184 194
130 146 113 185 101 136 196 163 142 193 200 246 54 212 249 175 154 223 161 156 147 154 150 125 106 90 61 50 50 37 84 111 180 208 217 216 226 212 233 258 278 180 156 168
182 191 181 166 207 179 195 192 177 191 194 183 88 231 244 25 61 166 158 146 147 148 145 120 102 92 77 67 66 65 69 90 76 97 165 182 23 35 59 53 46 58 61 116
193 169 63 63 44 158 167 203 65 109 45 88 200 245 271 176 176 197 177 178 166 148 140 125 111 90 80 72 62 74 83 79 98 96 96 83 76 75 85 79 77 88 103 78
211 117 16 100 182 157 220 144 151 234 177 224 223 259 245 205 217 190 182 186 165 145 149 135 117 101 85 78 79 75 75 74 75 81 77 88 97 103 112 105 84 74 63 55
162 110 105 170 211 179 159 181 215 247 201 207 243 229 31 290 186 189 186 172 164 160 155 144 123 109 97 88 84 81 77 80 76 71 73 73 69 71 69 70 60 50 48 31
167 100 154 197 48 357 287 212 186 188 200 241 34 263 91 50 154 176 169 157 148 149 146 140 134 124 107 95 89 86 80 76 70 67 67 67 65 59 65 63 53 41 42 38
174 172 116 127 209 205 216 203 218 221 50 196 197 252 138 128 163 172 167 164 159 160 154 148 138 128 121 104 102 89 82 77 72 74 75 66 56 56 54 53 53 48 40 36
181 130 205 208 196 143 206 209 204 218 198 228 223 248 159 185 184 179 179 178 171 173 167 161 146 139 120 118 105 94 84 76 82 80 77 71 59 56 50 39 40 42 30 29
187 202 220 245 56 60 191 188 189 206 226 219 239 246 239 203 198 198 185 180 181 185 182 174 159 149 139 128 113 102 89 83 88 83 72 66 59 49 44 34 20 33 29 20
155 149 115 60 82 89 7 231 201 212 229 236 251 259 248 350 171 189 185 187 199 195 184 177 159 147 136 131 118 108 97 81 76 78 72 60 54 48 39 22 356 13 13 10
157 141 125 166 111 98 280 225 208 222 230 228 238 247 237 191 200 200 196 203 202 191 178 168 163 149 138 127 122 107 98 92 78 74 58 51 40 42 28 358 2 5 357 336
143 127 120 120 122 216 249 66 216 216 233 223 247 256 237 240 211 208 205 202 192 179 171 166 152 136 127 123 110 101 82 85 78 65 55 37 22 18 4 3 1 353 345 337
83 125 159 205 209 303 286 186 183 191 244 235 241 250 249 122 74 234 268 184 181 161 148 145 135 128 120 106 100 102 91 79 59 38 31 21 15 1 356 354 347 340 330 321
126 36 215 149 223 231 0 85 96 124 267 203 219 242 237 143 221 240 156 129 125 129 123 118 114 107 100 78 75 84 70 63 48 23 15 4 358 345 332 328 323 313 297 294
153 181 202 213 226 277 120 142 159 180 256 335 19 340 138 193 252 100 119 113 114 114 117 117 110 101 93 74 84 94 69 50 19 12 349 342 336 323 309 306 304 304 307 302
175 166 176 190 211 250 136 114 186 79 110 4 337 317 130 109 118 123 120 119 119 120 116 109 109 101 84 64 63 83 71 26 7 350 332 317 303 310 309 307 304 304 298 302
209 212 172 201 212 98 195 48 64 2 334 163 197 173 148 136 136 135 130 122 118 114 107 101 116 107 78 73 59 92 65 10 348 318 299 304 312 307 325 319 318 316 313 308
214 171 213 170 193 187 246 221 232 246 266 308 199 160 153 146 142 134 128 125 121 118 115 122 110 117 115 92 91 86 58 14 331 341 346 338 340 339 333 325 314 309 301 297
131 148 169 265 166 285 236 232 243 171 129 117 98 148 158 141 138 136 132 131 131 128 123 117 122 129 127 115 94 72 42 16 4 350 342 339 336 334 319 306 302 296 283 284
186 170 193 220 138 187 94 217 172 164 170 160 144 110 104 143 134 133 131 131 135 136 136 130 123 124 118 103 96 81 54 35 11 347 344 335 316 315 305 303 303 289 290 291